This is the latest recevied weather packets stored in our database for station/object DC1MPP-9. If no packets are shown the sender has not sent any weather packets the latest 10 day(s).
| Time | Temp. | Humidity | Pressure | Rain* | Wind** | Luminosity | Snow |
|---|---|---|---|---|---|---|---|
| 1777116115 | 21.67° C | 29% | 959 hPa | - | - | - | - |
| 1777115874 | 21.11° C | 29% | 959 hPa | - | - | - | - |
| 1777115632 | 21.67° C | 28% | 960 hPa | - | - | - | - |
| 1777115391 | 22.22° C | 29% | 960 hPa | - | - | - | - |
| 1777115150 | 22.22° C | 30% | 960 hPa | - | - | - | - |
| 1777114909 | 22.22° C | 30% | 960 hPa | - | - | - | - |
| 1777114668 | 22.22° C | 31% | 960 hPa | - | - | - | - |
| 1777114427 | 21.67° C | 28% | 960 hPa | - | - | - | - |
| 1777114186 | 21.11° C | 32% | 960 hPa | - | - | - | - |
| 1777113945 | 21.67° C | 29% | 960 hPa | - | - | - | - |
| 1777113704 | 21.11° C | 27% | 960 hPa | - | - | - | - |
| 1777113463 | 21.11° C | 31% | 960 hPa | - | - | - | - |
| 1777113222 | 21.11° C | 34% | 960 hPa | - | - | - | - |
| 1777112981 | 21.11° C | 32% | 960 hPa | - | - | - | - |
| 1777112740 | 21.11° C | 29% | 960 hPa | - | - | - | - |
| 1777112499 | 21.67° C | 29% | 960 hPa | - | - | - | - |
| 1777112258 | 21.11° C | 31% | 960 hPa | - | - | - | - |
| 1777112017 | 21.67° C | 30% | 960 hPa | - | - | - | - |
| 1777111776 | 21.67° C | 34% | 960 hPa | - | - | - | - |
| 1777111535 | 20.56° C | 31% | 960 hPa | - | - | - | - |
| 1777111294 | 20.56° C | 32% | 960 hPa | - | - | - | - |
| 1777111052 | 20° C | 30% | 960 hPa | - | - | - | - |
| 1777110811 | 20° C | 30% | 960 hPa | - | - | - | - |
| 1777110570 | 20.56° C | 31% | 960 hPa | - | - | - | - |
| 1777110329 | 20.56° C | 31% | 960 hPa | - | - | - | - |
* Rain since midnight (hover to see other rain measurements)
** Current wind speed in m/s (hover to see current wind gust speed)